Simultaneous Nadir Overpasses (SNOs) Predictions

Prediction of SNOs between AURA and NPP Satellite Orbit:

Table of predicted SNOs for the next 14.0 days since TLE Epoch: 5/5/2017
Index Date (AURA) Time (AURA) Lat,Lon (AURA) SZA (AURA ) Date (NPP) Time (NPP) Lat,Lon (NPP) SZA (NPP ) Distance(km) Time Diff (sec)
1 05/06/2017 03:41:29 79.42, 20.80 76.08 05/06/2017 03:41:22 79.42, 20.76 76.10 1.03 7
2 05/06/2017 04:30:49 -79.68,-169.72 104.32 05/06/2017 04:31:59 -79.69,-169.63 104.39 2.08 70
3 05/08/2017 19:08:37 -79.25, -32.07 104.40 05/08/2017 19:07:38 -79.25, -32.08 104.35 0.27 59
4 05/08/2017 19:57:55 79.56, 137.64 75.15 05/08/2017 19:58:13 79.56, 137.76 75.12 2.39 18
5 05/11/2017 11:25:02 -79.39, 84.73 105.29 05/11/2017 11:24:28 -79.40, 84.87 105.29 3.01 34
6 05/11/2017 12:14:23 79.58,-106.32 74.43 05/11/2017 12:15:07 79.58,-106.34 74.40 0.49 44
7 05/14/2017 03:41:31 -79.42,-159.24 105.98 05/14/2017 03:41:23 -79.42,-159.24 105.97 0.04 8
8 05/14/2017 04:30:52 79.60, 9.71 73.74 05/14/2017 04:32:02 79.59, 9.55 73.72 3.22 70
9 05/16/2017 19:08:37 79.27, 148.07 73.63 05/16/2017 19:07:37 79.28, 148.14 73.66 1.48 60
10 05/16/2017 19:58:00 -79.44, -43.22 106.62 05/16/2017 19:58:18 -79.43, -43.36 106.61 2.86 18
11 05/19/2017 11:25:06 79.29, -95.94 73.03 05/19/2017 11:24:32 79.29, -95.99 73.07 1.09 34




NCC Satellite Simultaneous Nadir Overpasses (SNOs) Prediction Service
